CW7500 Weather Reports


Display with metric or nautical units.
time (UTC)temp
F
wind
direction
speed
MPH
gust
MPH
rain 1hr
in
rain 24hr
in
rain mn
in
humidity
%
barometer
mb
20210620131005 74 188 2.0 6.0 0.00 0.00 0.00 63 1008.6
20210620130505 74 295 1.0 5.0 0.00 0.00 0.00 64 1008.5
20210620130005 74 225 1.0 3.0 0.00 0.00 0.00 67 1008.6
20210620125505 73 217 1.0 3.0 0.00 0.00 0.00 65 1008.5
20210620125004 73 222 1.0 3.0 0.00 0.00 0.00 64 1008.5
20210620124505 73 183 1.0 3.0 0.00 0.00 0.00 63 1008.5
20210620124005 72 270 1.0 3.0 0.00 0.00 0.00 65 1008.5
20210620123505 72 246 1.0 3.0 0.00 0.00 0.00 66 1008.5
20210620123004 71 245 2.0 5.0 0.00 0.00 0.00 68 1008.5
20210620122505 71 259 1.0 2.0 0.00 0.00 0.00 75 1008.5
20210620122004 70 268 1.0 2.0 0.00 0.00 0.00 70 1008.5
20210620121504 70 231 1.0 3.0 0.00 0.00 0.00 71 1008.5
20210620121004 69 335 0.0 2.0 0.00 0.00 0.00 73 1008.3
20210620120505 69 218 0.0 2.0 0.00 0.00 0.00 76 1008.5
20210620120005 69 186 0.0 2.0 0.00 0.00 0.00 77 1008.4
20210620115504 69 251 0.0 2.0 0.00 0.00 0.00 73 1008.5
20210620115004 68 137 0.0 1.0 0.00 0.00 0.00 78 1008.5
20210620114505 68 221 1.0 2.0 0.00 0.00 0.00 79 1008.4
20210620114005 68 221 1.0 1.0 0.00 0.00 0.00 81 1008.4
20210620113504 67 212 1.0 2.0 0.00 0.00 0.00 82 1008.4
20210620113005 67 267 0.0 1.0 0.00 0.00 0.00 80 1008.3
20210620112505 67 95 0.0 3.0 0.00 0.00 0.00 80 1008.3
20210620112005 66 313 1.0 2.0 0.00 0.00 0.00 83 1008.0
20210620111504 66 251 1.0 2.0 0.00 0.00 0.00 85 1008.1
20210620111005 66 352 0.0 2.0 0.00 0.00 0.00 84 1008.1
20210620110504 66 248 1.0 2.0 0.00 0.00 0.00 85 1007.9
20210620110005 65 209 0.0 1.0 0.00 0.00 0.00 86 1007.9
20210620105504 65 207 1.0 1.0 0.00 0.00 0.00 86 1007.8
20210620105004 65 216 0.0 1.0 0.00 0.00 0.00 87 1007.9
20210620104504 65 216 0.0 1.0 0.00 0.00 0.00 87 1007.8
20210620104004 65 200 1.0 1.0 0.00 0.00 0.00 86 1007.7
20210620103504 65 172 0.0 1.0 0.00 0.00 0.00 86 1007.7
20210620103004 65 205 0.0 1.0 0.00 0.00 0.00 87 1007.8
20210620102504 65 234 1.0 2.0 0.00 0.00 0.00 86 1007.8
20210620102005 65 230 0.0 0.0 0.00 0.00 0.00 85 1007.8
20210620101504 65 197 0.0 1.0 0.00 0.00 0.00 87 1007.7
20210620101004 64 170 0.0 0.0 0.00 0.00 0.00 86 1007.5
20210620100505 64 104 0.0 0.0 0.00 0.00 0.00 87 1007.4
20210620100004 64 101 0.0 0.0 0.00 0.00 0.00 85 1007.6
20210620095504 64 69 0.0 0.0 0.00 0.00 0.00 86 1007.4
20210620095004 64 334 0.0 1.0 0.00 0.00 0.00 84 1007.4
20210620094504 64 243 0.0 1.0 0.00 0.00 0.00 85 1007.4
20210620094004 64 205 1.0 1.0 0.00 0.00 0.00 86 1007.4
20210620093504 64 206 1.0 1.0 0.00 0.00 0.00 85 1007.4
20210620093004 64 222 1.0 1.0 0.00 0.00 0.00 85 1007.4
20210620092504 65 233 0.0 1.0 0.00 0.00 0.00 84 1007.4
20210620092004 65 262 1.0 2.0 0.00 0.00 0.00 85 1007.4
20210620091505 64 228 1.0 1.0 0.00 0.00 0.00 84 1007.3
20210620091004 65 243 1.0 2.0 0.00 0.00 0.00 84 1007.3
20210620090504 65 245 0.0 1.0 0.00 0.00 0.00 84 1007.2
20210620090004 65 238 1.0 2.0 0.00 0.00 0.00 84 1007.2
20210620085504 65 241 1.0 2.0 0.00 0.00 0.00 84 1007.0
20210620085004 65 238 1.0 2.0 0.00 0.00 0.00 84 1007.0
20210620084504 65 243 0.0 1.0 0.00 0.00 0.00 85 1007.0
20210620084004 65 255 1.0 2.0 0.00 0.00 0.00 84 1007.0
20210620083504 65 246 1.0 2.0 0.00 0.00 0.00 85 1007.2
20210620083004 65 240 1.0 2.0 0.00 0.00 0.00 84 1007.0
20210620082504 65 220 0.0 3.0 0.00 0.00 0.00 85 1006.8
20210620082004 65 235 0.0 1.0 0.00 0.00 0.00 84 1006.8
20210620081504 65 237 1.0 2.0 0.00 0.00 0.00 85 1006.8
20210620081004 65 264 1.0 3.0 0.00 0.00 0.00 84 1006.8
20210620080504 65 265 0.0 2.0 0.00 0.00 0.00 84 1006.6
20210620080004 65 222 1.0 2.0 0.00 0.00 0.00 85 1006.6
20210620075504 65 230 1.0 2.0 0.00 0.00 0.00 84 1006.5
20210620075004 65 233 1.0 2.0 0.00 0.00 0.00 83 1006.5
20210620074504 65 249 1.0 3.0 0.00 0.00 0.00 84 1006.5
20210620074004 65 214 1.0 2.0 0.00 0.00 0.00 84 1006.5
20210620073504 65 212 0.0 2.0 0.00 0.00 0.00 83 1006.5
20210620073003 65 201 0.0 1.0 0.00 0.00 0.00 83 1006.6
20210620072504 65 219 0.0 1.0 0.00 0.00 0.00 84 1006.5
20210620072004 65 282 1.0 2.0 0.00 0.00 0.00 84 1006.5
20210620071504 65 219 1.0 2.0 0.00 0.00 0.00 84 1006.4
20210620071004 65 235 1.0 2.0 0.00 0.00 0.00 84 1006.4
20210620070504 65 271 0.0 2.0 0.00 0.00 0.00 83 1006.5
20210620070004 65 240 1.0 2.0 0.00 0.00 0.00 83 1006.3
20210620065504 65 246 1.0 2.0 0.00 0.00 0.00 83 1006.3
20210620065004 65 254 1.0 2.0 0.00 0.00 0.00 82 1006.6
20210620064503 66 260 0.0 3.0 0.00 0.00 0.00 81 1006.6
20210620064004 66 296 1.0 2.0 0.00 0.00 0.00 81 1006.5
20210620063504 66 310 1.0 3.0 0.00 0.00 0.00 81 1006.4
20210620063003 66 72 0.0 2.0 0.00 0.00 0.00 82 1006.4
20210620062504 66 246 1.0 2.0 0.00 0.00 0.00 82 1006.5
20210620062004 66 188 2.0 3.0 0.00 0.00 0.00 80 1006.4
20210620061504 66 233 1.0 3.0 0.00 0.00 0.00 81 1006.4
20210620061003 66 248 2.0 7.0 0.00 0.00 0.00 81 1006.6
20210620060504 66 242 2.0 9.0 0.00 0.00 0.00 80 1006.5
20210620060004 66 251 2.0 5.0 0.00 0.00 0.00 79 1006.5
20210620055503 66 233 1.0 6.0 0.00 0.00 0.00 80 1006.5
20210620055004 66 233 1.0 6.0 0.00 0.00 0.00 82 1006.5
20210620054504 66 270 2.0 5.0 0.00 0.00 0.00 81 1006.5
20210620054003 66 242 1.0 8.0 0.00 0.00 0.00 82 1006.6
20210620053504 65 236 2.0 3.0 0.00 0.00 0.00 84 1006.6
20210620053004 65 245 1.0 3.0 0.00 0.00 0.00 84 1006.5
20210620052503 65 311 1.0 3.0 0.00 0.00 0.00 85 1006.5
20210620052004 65 247 1.0 3.0 0.00 0.00 0.00 86 1006.5
20210620051503 65 249 1.0 2.0 0.00 0.00 0.00 86 1006.5
20210620051004 65 95 1.0 2.0 0.00 0.00 0.00 87 1006.5
20210620050503 65 276 0.0 3.0 0.00 0.00 0.00 87 1006.5
20210620050028 65 228 1.0 3.0 0.00 0.00 0.00 87 1006.7
20210620045528 65 336 0.0 2.0 0.00 0.00 0.00 87 1006.7
20210620045028 65 285 1.0 3.0 0.00 0.00 0.00 89 1006.5
20210620044528 65 311 1.0 2.0 0.00 0.00 0.00 89 1006.5
20210620044028 65 223 1.0 3.0 0.00 0.00 0.00 89 1006.5
20210620043529 65 230 1.0 2.0 0.00 0.00 0.00 91 1006.5
20210620043028 65 60 1.0 3.0 0.00 0.00 0.00 91 1006.5
20210620042528 65 325 1.0 2.0 0.00 0.00 0.00 91 1006.4
20210620042028 65 232 1.0 3.0 0.00 0.00 0.00 90 1006.4
20210620041528 66 243 1.0 3.0 0.00 0.00 0.00 90 1006.4
20210620041028 66 217 1.0 3.0 0.00 0.00 0.00 91 1006.5
20210620040528 66 253 1.0 2.0 0.00 0.00 0.00 91 1006.8
20210620040028 66 291 1.0 5.0 0.00 0.00 0.00 89 1006.6
20210620035528 66 341 2.0 5.0 0.00 0.00 0.00 89 1006.5
20210620035028 67 182 1.0 5.0 0.00 0.00 0.00 89 1006.4
20210620034528 67 82 3.0 5.0 0.00 0.00 0.00 86 1006.3
20210620034028 67 158 2.0 7.0 0.00 0.00 0.00 86 1006.7
20210620033528 68 143 3.0 8.0 0.00 0.00 0.00 83 1006.9
20210620033028 68 78 3.0 7.0 0.00 0.00 0.00 81 1006.9
20210620032528 68 222 2.0 5.0 0.00 0.00 0.00 78 1006.9
20210620032028 69 154 1.0 3.0 0.00 0.00 0.00 78 1006.8
20210620031528 69 279 1.0 5.0 0.00 0.00 0.00 77 1006.7
20210620031028 69 94 2.0 6.0 0.00 0.00 0.00 78 1006.5
20210620030528 69 118 2.0 6.0 0.00 0.00 0.00 79 1006.6
20210620030028 69 153 2.0 8.0 0.00 0.00 0.00 80 1006.8
20210620025527 69 168 2.0 6.0 0.00 0.00 0.00 80 1006.6
20210620025028 69 187 1.0 5.0 0.00 0.00 0.00 82 1006.5
20210620024528 69 282 1.0 8.0 0.00 0.00 0.00 80 1006.5
20210620024028 69 233 1.0 6.0 0.00 0.00 0.00 80 1006.7
20210620023528 69 199 1.0 5.0 0.00 0.00 0.00 78 1006.7
20210620023028 70 195 2.0 5.0 0.00 0.00 0.00 75 1006.7
20210620022528 70 222 1.0 3.0 0.00 0.00 0.00 71 1006.5
20210620022028 70 222 1.0 7.0 0.00 0.00 0.00 70 1006.5
20210620021528 70 321 2.0 8.0 0.00 0.00 0.00 69 1006.5
20210620021027 70 151 1.0 6.0 0.00 0.00 0.00 71 1006.5
20210620020528 70 137 2.0 5.0 0.00 0.00 0.00 68 1006.5
20210620020028 70 223 1.0 3.0 0.00 0.00 0.00 70 1006.5
20210620015528 70 242 1.0 2.0 0.00 0.00 0.00 71 1006.4
20210620015028 70 220 1.0 5.0 0.00 0.00 0.00 78 1006.3
20210620014528 71 210 2.0 6.0 0.00 0.00 0.00 77 1006.2
20210620014028 71 299 1.0 3.0 0.00 0.00 0.00 77 1006.4
20210620013528 72 220 1.0 3.0 0.00 0.00 0.00 74 1006.4
20210620013027 72 90 0.0 2.0 0.00 0.00 0.00 69 1006.3
20210620012527 72 244 1.0 3.0 0.00 0.00 0.00 74 1006.3
20210620012028 72 321 1.0 3.0 0.00 0.00 0.00 70 1006.4
20210620011528 73 243 1.0 3.0 0.00 0.00 0.00 73 1006.3
20210620011027 73 269 1.0 2.0 0.00 0.00 0.00 75 1006.1
20210620010528 73 347 1.0 3.0 0.00 0.00 0.00 73 1006.0
20210620010028 73 226 1.0 2.0 0.00 0.00 0.00 74 1006.0
20210620005527 73 85 1.0 3.0 0.00 0.00 0.00 72 1006.0
20210620005028 73 223 1.0 2.0 0.00 0.00 0.00 75 1006.0
20210620004528 74 257 2.0 5.0 0.00 0.00 0.00 74 1006.0
20210620004028 74 273 1.0 2.0 0.00 0.00 0.00 76 1006.0
20210620003528 74 244 0.0 1.0 0.00 0.00 0.00 76 1006.0
20210620003027 74 172 0.0 2.0 0.00 0.00 0.00 73 1005.9
20210620002528 75 231 0.0 1.0 0.00 0.00 0.00 72 1005.9
20210620002027 75 248 1.0 2.0 0.00 0.00 0.00 70 1006.0
20210620001528 75 226 1.0 2.0 0.00 0.00 0.00 68 1006.0
20210620001028 75 297 1.0 2.0 0.00 0.00 0.00 67 1005.9
20210620000528 75 242 1.0 2.0 0.00 0.00 0.00 67 1005.8
20210620000028 76 158 0.0 1.0 0.00 0.00 0.00 67 1005.8
20210619235527 76 234 1.0 2.0 0.00 0.00 0.00 67 1005.8
20210619235027 76 252 1.0 2.0 0.00 0.00 0.00 65 1005.6
20210619234528 76 244 0.0 2.0 0.00 0.00 0.00 64 1005.6
20210619234027 76 260 0.0 1.0 0.00 0.00 0.00 62 1005.6
20210619233528 77 185 1.0 5.0 0.00 0.00 0.00 59 1005.6
20210619233027 77 145 0.0 2.0 0.00 0.00 0.00 55 1005.5
20210619232527 76 160 1.0 1.0 0.00 0.00 0.00 54 1005.5
20210619232028 77 243 0.0 0.0 0.00 0.00 0.00 54 1005.3
20210619231527 77 245 0.0 1.0 0.00 0.00 0.00 52 1005.1
20210619231028 77 247 0.0 1.0 0.00 0.00 0.00 51 1005.0
20210619230527 77 209 0.0 1.0 0.00 0.00 0.00 52 1005.0
20210619230027 77 209 0.0 1.0 0.00 0.00 0.00 52 1005.0
20210619225527 78 216 0.0 0.0 0.00 0.00 0.00 50 1004.9
20210619225027 78 234 0.0 0.0 0.00 0.00 0.00 49 1005.0
20210619224527 78 234 0.0 0.0 0.00 0.00 0.00 49 1005.0
20210619224027 78 261 0.0 1.0 0.00 0.00 0.00 49 1004.9
20210619223527 78 271 0.0 1.0 0.00 0.00 0.00 49 1005.0
20210619223028 78 198 0.0 1.0 0.00 0.00 0.00 52 1005.0
20210619222527 78 243 0.0 1.0 0.00 0.00 0.00 50 1005.0
20210619222027 78 238 0.0 1.0 0.00 0.00 0.00 50 1005.0
20210619221527 79 232 0.0 1.0 0.00 0.00 0.00 51 1005.0
20210619221027 79 239 0.0 1.0 0.00 0.00 0.00 52 1005.0
20210619220527 79 271 1.0 2.0 0.00 0.00 0.00 51 1005.0
20210619220027 79 253 1.0 2.0 0.00 0.00 0.00 52 1005.0
20210619215527 80 7 1.0 3.0 0.00 0.00 0.00 50 1005.0
20210619215027 80 240 1.0 2.0 0.00 0.00 0.00 56 1004.9
20210619214527 80 248 1.0 2.0 0.00 0.00 0.00 51 1004.9
20210619214027 81 215 0.0 1.0 0.00 0.00 0.00 50 1004.9
20210619213528 81 175 1.0 5.0 0.00 0.00 0.00 51 1004.8
20210619213027 81 49 0.0 5.0 0.00 0.00 0.00 45 1004.8
20210619212527 81 233 1.0 2.0 0.00 0.00 0.00 51 1004.9
20210619212028 81 212 1.0 3.0 0.00 0.00 0.00 50 1004.7
20210619211528 82 283 1.0 3.0 0.00 0.00 0.00 51 1004.6
20210619211027 82 355 1.0 2.0 0.00 0.00 0.00 53 1004.5
20210619210528 83 339 1.0 2.0 0.00 0.00 0.00 50 1004.6
20210619210027 83 228 1.0 6.0 0.00 0.00 0.00 44 1004.6
20210619205527 83 246 2.0 6.0 0.00 0.00 0.00 45 1004.5
20210619205027 83 223 2.0 3.0 0.00 0.00 0.00 49 1004.5
20210619204527 84 220 1.0 3.0 0.00 0.00 0.00 43 1004.5
20210619204027 84 198 2.0 3.0 0.00 0.00 0.00 45 1004.5
20210619203527 84 263 2.0 9.0 0.00 0.00 0.00 40 1004.5
20210619203027 85 285 2.0 5.0 0.00 0.00 0.00 40 1004.5
20210619202527 85 216 2.0 7.0 0.00 0.00 0.00 41 1004.4
20210619202027 84 352 2.0 9.0 0.00 0.00 0.00 47 1004.5
20210619201527 84 227 1.0 3.0 0.00 0.00 0.00 44 1004.5
20210619201027 84 217 1.0 3.0 0.00 0.00 0.00 46 1004.5
20210619200527 84 248 1.0 5.0 0.00 0.00 0.00 47 1004.8
20210619200027 85 292 2.0 6.0 0.00 0.00 0.00 43 1004.8
20210619195527 85 131 3.0 10.0 0.00 0.00 0.00 41 1004.8
20210619195026 85 218 2.0 5.0 0.00 0.00 0.00 46 1004.8
20210619194527 85 216 2.0 7.0 0.00 0.00 0.00 45 1004.9
20210619194027 86 211 3.0 6.0 0.00 0.00 0.00 41 1004.9
20210619193527 86 259 2.0 9.0 0.00 0.00 0.00 41 1005.0
20210619193027 86 264 1.0 5.0 0.00 0.00 0.00 44 1005.0
20210619192527 85 256 2.0 5.0 0.00 0.00 0.00 43 1005.0
20210619192027 85 244 1.0 5.0 0.00 0.00 0.00 48 1005.0
20210619191527 85 34 2.0 6.0 0.00 0.00 0.00 45 1005.0
20210619191027 86 87 1.0 7.0 0.00 0.00 0.00 44 1005.0
20210619190527 85 304 1.0 3.0 0.00 0.00 0.00 45 1005.1
20210619190027 85 235 2.0 5.0 0.00 0.00 0.00 46 1005.2
20210619185527 85 207 2.0 6.0 0.00 0.00 0.00 47 1005.3
20210619185027 85 241 1.0 6.0 0.00 0.00 0.00 44 1005.2
20210619184527 83 271 1.0 6.0 0.00 0.00 0.00 49 1005.5
20210619184026 83 204 1.0 3.0 0.00 0.00 0.00 51 1005.5
20210619183527 84 230 1.0 6.0 0.00 0.00 0.00 47 1005.4
20210619183027 84 242 2.0 6.0 0.00 0.00 0.00 46 1005.4
20210619182527 83 244 1.0 2.0 0.00 0.00 0.00 51 1005.4
20210619182027 84 260 1.0 5.0 0.00 0.00 0.00 48 1005.4
20210619181526 85 290 2.0 6.0 0.00 0.00 0.00 45 1005.4
20210619181026 85 240 2.0 6.0 0.00 0.00 0.00 49 1005.4
20210619180527 85 291 2.0 6.0 0.00 0.00 0.00 46 1005.4
20210619180026 85 291 2.0 6.0 0.00 0.00 0.00 46 1005.4
20210619175526 86 230 2.0 8.0 0.00 0.00 0.00 51 1005.1
20210619175026 85 288 2.0 6.0 0.00 0.00 0.00 51 1005.1
20210619174527 85 191 2.0 5.0 0.00 0.00 0.00 52 1005.1
20210619174026 85 172 2.0 6.0 0.00 0.00 0.00 47 1005.1
20210619173527 85 213 2.0 7.0 0.00 0.00 0.00 50 1005.1
20210619173027 85 265 2.0 3.0 0.00 0.00 0.00 50 1005.0
20210619172526 85 226 3.0 6.0 0.00 0.00 0.00 50 1005.0
20210619172026 85 312 2.0 3.0 0.00 0.00 0.00 48 1005.1
20210619171527 85 175 2.0 6.0 0.00 0.00 0.00 51 1005.1
20210619171027 85 354 2.0 6.0 0.00 0.00 0.00 51 1005.1
20210619170527 84 297 1.0 3.0 0.00 0.00 0.00 52 1005.3
20210619170026 84 242 1.0 6.0 0.00 0.00 0.00 57 1005.2
20210619165526 84 254 2.0 5.0 0.00 0.00 0.00 50 1005.4
20210619165027 84 210 2.0 5.0 0.00 0.00 0.00 54 1005.3
20210619164527 84 22 1.0 6.0 0.00 0.00 0.00 55 1005.1
20210619164026 84 261 1.0 3.0 0.00 0.00 0.00 55 1005.3
20210619163526 84 244 2.0 6.0 0.00 0.00 0.00 59 1005.3
20210619163027 83 90 2.0 7.0 0.00 0.00 0.00 53 1005.2
20210619162526 83 200 2.0 5.0 0.00 0.00 0.00 60 1005.0
20210619162027 83 197 1.0 6.0 0.00 0.00 0.00 53 1005.1
20210619161526 82 232 2.0 8.0 0.00 0.00 0.00 59 1005.2
20210619161026 82 249 3.0 6.0 0.00 0.00 0.00 58 1005.2
20210619160526 81 42 2.0 6.0 0.00 0.00 0.00 57 1005.2
20210619160026 82 247 3.0 7.0 0.00 0.00 0.00 56 1005.4
20210619155526 81 273 2.0 6.0 0.00 0.00 0.00 57 1005.5
20210619155027 81 355 2.0 7.0 0.00 0.00 0.00 56 1005.5
20210619154526 80 217 2.0 6.0 0.00 0.00 0.00 59 1005.5
20210619154026 80 266 2.0 5.0 0.00 0.00 0.00 57 1005.5
20210619153527 80 245 2.0 6.0 0.00 0.00 0.00 58 1005.8
20210619153026 81 260 2.0 7.0 0.00 0.00 0.00 56 1005.8
20210619152526 80 298 2.0 6.0 0.00 0.00 0.00 59 1005.6
20210619152026 80 251 1.0 3.0 0.00 0.00 0.00 61 1005.8
20210619151526 79 213 1.0 6.0 0.00 0.00 0.00 60 1005.6
20210619151026 80 75 1.0 3.0 0.00 0.00 0.00 60 1005.8
20210619150526 79 207 2.0 5.0 0.00 0.00 0.00 61 1005.8
20210619150026 78 224 2.0 7.0 0.00 0.00 0.00 64 1005.9
20210619145526 78 187 1.0 6.0 0.00 0.00 0.00 60 1005.6
20210619145026 78 245 1.0 3.0 0.00 0.00 0.00 66 1005.9
20210619144527 77 205 1.0 7.0 0.00 0.00 0.00 62 1006.0
20210619144026 77 252 1.0 3.0 0.00 0.00 0.00 66 1006.0
20210619143526 76 38 2.0 6.0 0.00 0.00 0.00 67 1006.0
20210619143026 76 208 1.0 5.0 0.00 0.00 0.00 65 1006.0
20210619142526 76 245 1.0 3.0 0.00 0.00 0.00 66 1006.0
20210619142026 75 245 2.0 7.0 0.00 0.00 0.00 65 1006.1
20210619141526 75 204 2.0 5.0 0.00 0.00 0.00 71 1006.2
20210619141026 74 206 1.0 3.0 0.00 0.00 0.00 71 1006.4
20210619140526 74 281 0.0 3.0 0.00 0.00 0.00 68 1006.3
20210619140026 73 130 1.0 5.0 0.00 0.00 0.00 72 1006.3
20210619135526 73 230 0.0 5.0 0.00 0.00 0.00 68 1006.3
20210619135026 72 189 1.0 5.0 0.00 0.00 0.00 75 1006.3
20210619134526 71 256 2.0 7.0 0.00 0.00 0.00 74 1006.3
20210619134026 71 249 2.0 3.0 0.00 0.00 0.00 74 1006.4
20210619133526 71 0 2.0 6.0 0.00 0.00 0.00 72 1006.4
20210619133026 71 231 1.0 6.0 0.00 0.00 0.00 71 1006.3
20210619132526 71 277 1.0 7.0 0.00 0.00 0.00 75 1006.4
20210619132025 71 275 2.0 5.0 0.00 0.00 0.00 73 1006.7
20210619131525 70 336 2.0 8.0 0.00 0.00 0.00 74 1006.5